Modesto, CA

1:10 AM PDT on August 19, 2017 (GMT -0700)
Modesto City-County-Sham

Weather History for KMOD - June, 2013

Change the Weather History Date:

Saturday, June 1, 2013

  Actual Average Record
Temperature  
Mean Temperature 80 °F -  
Max Temperature 98 °F 87 °F 104 °F (1960)
Min Temperature 61 °F 58 °F 43 °F (1971)
Degree Days  
Heating Degree Days 0 0  
Month to date heating degree days 0 0  
Since 1 June heating degree days 0 0  
Since 1 July heating degree days 2148 2168  
Cooling Degree Days 15 7  
Month to date cooling degree days 15 7  
Year to date cooling degree days 261 206  
Since 1 June cooling degree days 15 7  
Growing Degree Days 30 (Base 50)    
Moisture  
Dew Point 48 °F    
Average Humidity 41    
Maximum Humidity 67    
Minimum Humidity 14    
Precipitation  
Precipitation 0.00 in 0.01 in 0.19 in (1967)
Month to date precipitation 0.00 0.01  
Year to date precipitation 3.14 8.64  
Since 1 July precipitation 9.02  
Snow  
Snow 0.00 in - - ()
Month to date snowfall 0.0  
Since 1 June snowfall 0.0  
Since 1 July snowfall 0.0  
Snow Depth -    
Sea Level Pressure  
Sea Level Pressure 29.81 in    
Wind  
Wind Speed 5 mph (NNW)    
Max Wind Speed 15 mph    
Max Gust Speed 22 mph    
Visibility 10 miles    
Events      
T = Trace of Precipitation, MM = Missing Value Source: NWS Daily Summary

Daily Weather History Graph

Daily Weather History Graph

Search for Another Location

Airport or City:

Trip Planner

Search our weather history database for the weather conditions in past years. The results will help you decide how hot, cold, wet, or windy it might be!

Date:

Astronomy

Jun. 01, 2013 Rise Set
Actual Time 5:43 AM PDT 8:19 PM PDT
Civil Twilight 5:13 AM PDT 8:50 PM PDT
Nautical Twilight 4:35 AM PDT 9:28 PM PDT
Astronomical Twilight 3:52 AM PDT 10:11 PM PDT
Moon 1:35 AM PDT (6/1) 2:01 PM PDT (6/1)
Length of Visible Light 15h 37m
Length of Day
14h 36m
Last Quarter, 40% of the Moon is Illuminated
Jun 1
Last Quarter
Jun 8
New
Jun 16
First Quarter
Jun 23
Full
Jun 29
Last Quarter

Hourly Weather History & Observations

Time (PDT) Temp. Heat Index Dew Point Humidity Pressure Visibility Wind Dir Wind Speed Gust Speed Precip Events Conditions
12:53 AM 70.0 °F - 46.0 °F 42% 29.87 in 10.0 mi ENE 4.6 mph - N/A   Clear
1:53 AM 69.1 °F - 46.0 °F 44% 29.87 in 10.0 mi Variable 3.5 mph - N/A   Clear
2:53 AM 68.0 °F - 46.0 °F 45% 29.86 in 10.0 mi NNE 4.6 mph - N/A   Clear
3:53 AM 66.9 °F - 46.9 °F 49% 29.86 in 10.0 mi Calm Calm - N/A   Clear
4:53 AM 64.9 °F - 48.0 °F 54% 29.85 in 10.0 mi NW 4.6 mph - N/A   Clear
5:53 AM 62.1 °F - 51.1 °F 67% 29.85 in 10.0 mi Calm Calm - N/A   Clear
6:53 AM 64.0 °F - 52.0 °F 65% 29.86 in 10.0 mi Calm Calm - N/A   Clear
7:53 AM 72.0 °F - 50.0 °F 46% 29.86 in 10.0 mi Calm Calm - N/A   Clear
8:53 AM 78.1 °F - 46.9 °F 33% 29.87 in 10.0 mi NW 10.4 mph - N/A   Clear
9:53 AM 79.0 °F - 48.9 °F 35% 29.86 in 10.0 mi NNW 6.9 mph - N/A   Clear
10:53 AM 82.9 °F - 50.0 °F 32% 29.86 in 10.0 mi WNW 8.1 mph - N/A   Clear
11:53 AM 84.9 °F - 51.1 °F 31% 29.85 in 10.0 mi West 6.9 mph - N/A   Clear
12:53 PM 89.1 °F - 50.0 °F 26% 29.83 in 10.0 mi NW 6.9 mph - N/A   Clear
1:53 PM 93.0 °F - 48.9 °F 22% 29.81 in 10.0 mi WNW 11.5 mph 21.9 mph N/A   Clear
2:53 PM 93.9 °F - 45.0 °F 18% 29.79 in 10.0 mi NNW 11.5 mph 18.4 mph N/A   Clear
3:53 PM 96.1 °F - 42.1 °F 15% 29.77 in 10.0 mi North 10.4 mph - N/A   Clear
4:53 PM 97.0 °F - 39.0 °F 13% 29.75 in 10.0 mi NNW 10.4 mph - N/A   Clear
5:53 PM 95.0 °F - 45.0 °F 18% 29.73 in 10.0 mi NNW 11.5 mph - N/A   Clear
6:53 PM 91.9 °F - 46.9 °F 21% 29.73 in 10.0 mi NW 9.2 mph - N/A   Clear
7:53 PM 89.1 °F - 48.9 °F 25% 29.72 in 10.0 mi NW 8.1 mph - N/A   Clear
8:53 PM 84.9 °F - 50.0 °F 30% 29.72 in 10.0 mi NW 6.9 mph - N/A   Clear
9:53 PM 82.0 °F 81.2 °F 53.1 °F 37% 29.73 in 10.0 mi NW 5.8 mph - N/A   Clear
10:53 PM 81.0 °F - 48.9 °F 33% 29.72 in 10.0 mi NNW 5.8 mph - N/A   Clear
11:53 PM 78.1 °F - 50.0 °F 37% 29.72 in 10.0 mi North 3.5 mph - N/A   Clear